Weather History for Sault Ste Marie, MI

Change the Weather History Date:

Monday, January 27, 2014

  Actual Average Record
Temperature  
Mean Temperature -3 °F 15 °F  
Max Temperature 4 °F 23 °F 44 °F (2006)
Min Temperature -11 °F 7 °F -28 °F (1899)
Degree Days  
Heating Degree Days 68 50  
Month to date heating degree days 1492 1338  
Since 1 July heating degree days 5007 4597  
Moisture  
Dew Point -10 °F    
Average Humidity 66    
Maximum Humidity 79    
Minimum Humidity 52    
Precipitation  
Precipitation 0.25 in 0.06 in 0.66 in (1916)
Month to date precipitation 2.31 1.94  
Year to date precipitation 2.31 1.94  
Snow  
Snow 3.20 in 0.90 in 9.20 in (1966)
Month to date snowfall 31.9 27.6  
Since 1 July snowfall 86.6 77.8  
Snow Depth 25.00 in    
Sea Level Pressure  
Sea Level Pressure 29.85 in    
Wind  
Wind Speed 8 mph (West)    
Max Wind Speed 17 mph    
Max Gust Speed 24 mph    
Visibility 4 miles    
Events Snow    
T = Trace of Precipitation, MM = Missing Value Source: NWS Daily Summary

Daily Weather History Graph

Daily Weather History Graph

Search for Another Location

Airport:

Trip Planner

Search our weather history database for the weather conditions in past years. The results will help you decide how hot, cold, wet, or windy it might be!

Date:

Astronomy

Jan. 27, 2014 Rise Set
Actual Time 8:06 AM EST 5:34 PM EST
Civil Twilight 7:34 AM EST 6:06 PM EST
Nautical Twilight 6:57 AM EST 6:43 PM EST
Astronomical Twilight 6:22 AM EST 7:19 PM EST
Moon 4:49 AM EST (1/27) 2:16 PM EST (1/27)
Length of Visible Light 10h 32m
Length of Day
9h 27m
Waning Crescent, 15% of the Moon is Illuminated
Jan 27
Waning Crescent
Jan 30
New
Feb 6
First Quarter
Feb 14
Full
Feb 22
Last Quarter

Hourly Weather History & Observations

Time (EST) Temp. Windchill Dew Point Humidity Pressure Visibility Wind Dir Wind Speed Gust Speed Precip Events Conditions
12:10 AM 3.9 °F -10.4 °F -2.0 °F 76% 29.37 in 3.0 mi North 9.2 mph - 0.00 in Snow Light Snow
12:19 AM 3.9 °F -9.4 °F -2.0 °F 76% 29.38 in 4.0 mi North 8.1 mph - 0.00 in Snow Light Snow
12:29 AM 3.9 °F -9.4 °F -2.0 °F 76% 29.38 in 2.5 mi NNW 8.1 mph - 0.00 in Snow Light Snow
12:55 AM 3.0 °F -10.5 °F -2.9 °F 76% 29.44 in 4.0 mi North 8.1 mph - 0.00 in Snow Light Snow
1:55 AM 1.9 °F -11.8 °F -5.1 °F 72% 29.49 in 10.0 mi North 8.1 mph - 0.00 in   Overcast
2:55 AM -0.0 °F -19.4 °F -7.1 °F 72% 29.56 in 8.0 mi NNW 15.0 mph 19.6 mph N/A   Overcast
3:55 AM -0.9 °F -19.1 °F -8.0 °F 72% 29.61 in 6.0 mi NNW 12.7 mph - N/A   Haze
4:55 AM -4.0 °F -22.1 °F -11.9 °F 69% 29.67 in 8.0 mi NNW 11.5 mph - N/A   Overcast
5:55 AM -6.0 °F -23.6 °F -14.1 °F 68% 29.72 in 10.0 mi NNW 10.4 mph - N/A   Clear
6:55 AM -8.0 °F -25.0 °F -16.1 °F 68% 29.77 in 10.0 mi North 9.2 mph - N/A   Clear
7:55 AM -9.9 °F -23.4 °F -18.9 °F 65% 29.81 in 10.0 mi North 5.8 mph - N/A   Clear
8:55 AM -9.9 °F -21.5 °F -18.9 °F 65% 29.86 in 10.0 mi North 4.6 mph - N/A   Clear
9:55 AM -9.0 °F -18.2 °F -20.0 °F 59% 29.90 in 10.0 mi NW 3.5 mph - N/A   Overcast
10:55 AM -7.1 °F - -20.9 °F 51% 29.93 in 10.0 mi Calm Calm - N/A   Overcast
11:55 AM -6.0 °F -18.6 °F -18.0 °F 56% 29.94 in 10.0 mi WSW 5.8 mph - N/A   Overcast
12:55 PM -5.1 °F -15.8 °F -17.0 °F 57% 29.94 in 10.0 mi West 4.6 mph - N/A   Overcast
1:31 PM -4.0 °F - -14.1 °F 62% 29.89 in 2.0 mi Calm Calm - 0.00 in Snow Light Snow
1:43 PM -5.1 °F -15.8 °F -13.0 °F 69% 29.88 in 1.8 mi SSW 4.6 mph - 0.00 in Snow Light Snow
1:55 PM -5.1 °F -13.6 °F -11.9 °F 72% 29.94 in 1.8 mi South 3.5 mph - 0.00 in Snow Light Snow
2:55 PM -4.0 °F -12.4 °F -9.9 °F 76% 29.94 in 1.0 mi South 3.5 mph - 0.00 in Snow Light Snow
3:04 PM -4.0 °F -14.6 °F -9.0 °F 79% 29.88 in 0.8 mi South 4.6 mph - 0.00 in Snow Light Snow
3:14 PM -4.0 °F -14.6 °F -9.0 °F 79% 29.88 in 0.5 mi South 4.6 mph - 0.01 in Snow Snow
3:33 PM -2.0 °F -12.2 °F -8.0 °F 76% 29.88 in 0.2 mi WSW 4.6 mph - 0.01 in Snow Heavy Snow
3:55 PM -0.9 °F -19.9 °F -6.0 °F 79% 29.94 in 0.2 mi WSW 13.8 mph - 0.02 in Snow Heavy Snow
4:55 PM -0.9 °F -16.4 °F -6.0 °F 79% 29.97 in 0.5 mi WNW 9.2 mph - 0.00 in Snow Snow
5:02 PM -0.9 °F -15.3 °F -7.1 °F 75% 29.91 in 0.8 mi WNW 8.1 mph - 0.00 in Snow Light Snow
5:04 PM -0.9 °F -15.3 °F -7.1 °F 75% 29.92 in 1.0 mi WNW 8.1 mph - 0.00 in Snow Light Snow
5:19 PM -2.0 °F -16.6 °F -8.0 °F 76% 29.92 in 0.8 mi West 8.1 mph - 0.00 in Snow Light Snow
5:42 PM -2.9 °F -16.5 °F -8.0 °F 79% 29.93 in 1.2 mi West 6.9 mph - 0.00 in Snow Light Snow
5:55 PM -2.9 °F -17.7 °F -8.0 °F 79% 29.99 in 1.5 mi West 8.1 mph - 0.01 in Snow Light Snow
6:32 PM -2.9 °F -15.0 °F -8.0 °F 79% 29.95 in 1.0 mi West 5.8 mph - 0.00 in Snow Light Snow
6:46 PM -2.9 °F -13.3 °F -8.0 °F 79% 29.95 in 0.8 mi West 4.6 mph - 0.00 in Snow Light Snow
6:55 PM -2.9 °F -11.2 °F -8.0 °F 79% 30.01 in 0.8 mi WNW 3.5 mph - 0.00 in Snow Light Snow
7:55 PM -2.9 °F -11.2 °F -8.0 °F 79% 30.03 in 0.5 mi NNW 3.5 mph - 0.02 in Snow Snow
8:55 PM -2.9 °F -13.3 °F -8.0 °F 79% 30.02 in 0.8 mi WSW 4.6 mph - 0.04 in Snow Light Snow
9:18 PM -2.0 °F -21.2 °F -7.1 °F 79% 29.96 in 1.0 mi WSW 13.8 mph - 0.00 in Snow Light Snow
9:28 PM -2.0 °F -20.5 °F -7.1 °F 79% 29.96 in 0.8 mi WSW 12.7 mph 20.7 mph 0.00 in Snow Light Snow
9:55 PM -2.0 °F -19.6 °F -7.1 °F 79% 30.02 in 0.8 mi WSW 11.5 mph - 0.01 in Snow Light Snow
10:29 PM -2.0 °F -19.6 °F -7.1 °F 79% 29.96 in 0.5 mi WSW 11.5 mph - 0.01 in Snow Snow
10:36 PM -2.0 °F -17.7 °F -7.1 °F 79% 29.96 in 0.8 mi WSW 9.2 mph - 0.01 in Snow Light Snow
10:43 PM -2.0 °F -20.5 °F -8.0 °F 76% 29.96 in 1.2 mi WSW 12.7 mph - 0.01 in Snow Light Snow
10:55 PM -2.9 °F -19.8 °F -8.0 °F 79% 30.02 in 0.8 mi WSW 10.4 mph - 0.01 in Snow Light Snow
11:29 PM -2.9 °F -17.7 °F -8.0 °F 79% 29.96 in 1.8 mi WSW 8.1 mph - 0.01 in Snow Light Snow
11:33 PM -2.9 °F -19.8 °F -8.0 °F 79% 29.96 in 3.0 mi WSW 10.4 mph - 0.01 in Snow Light Snow
11:55 PM -4.0 °F -20.2 °F -9.0 °F 79% 30.02 in 1.8 mi WSW 9.2 mph - 0.01 in Snow Light Snow